Voltar ao catálogo

TITAN 4 CENTAUR R/B

AtivoGEO
NORAD 23568·ROCKET BODY·🇺🇸 United States

Lançado May 14, 1995 de Cape Canaveral Space Force Station

Loading…

TLE

AtualizadoSource: Space-Track

Época: Sep 10, 2026, 22:03 UTC

1 23568U 95022B   26253.91882387  .00000059  00000-0  00000-0 0  9990
2 23568  18.3376   5.3172 0006550 344.6016  15.3963  1.00556437 26761

Acompanhe TITAN 4 CENTAUR R/B em tempo real com AllMySat

Download on the App Store